Torna al catalogo

ORBCOMM FM 18

AttivoComunicazioniLEO
NORAD 25414·PAYLOAD·🇺🇸 United States

Lanciato Aug 2, 1998 da Cape Canaveral Space Force Station

Loading…

Prossimi Passaggi (prossime 24 ore)

TLE

AggiornatoSource: Space-Track

Epoca: Sep 13, 2026, 19:50 UTC

1 25414U 98046B   26256.82701925  .00000668  00000-0  25610-3 0  9995
2 25414  44.9916 179.5122 0005550  26.3575 333.7555 14.39796096469601

Traccia ORBCOMM FM 18 in tempo reale con AllMySat

Download on the App Store